Social login voor leden:

1. METAR EBOS

METAR EBOS 020620Z 23009KT 9999 SCT012 15/13 Q1010 NOSIG

2. TAF EBOS

TAF EBOS 020620Z 23009KT 9999 SCT012 15/13 Q1010 NOSIG

3. NOTAMS EBOS

Klik hier voor een overzicht van de notams.

Deze pagina promoten

Noordzee Vliegclub - Nieuwpoortsesteenweg 947 8400 Oostende - Tel 059 30 04 79 - info@nzvc.be - 

 - Copyright 2020